[[{"header":{"parameterUnit":"m.s-1","parameterCategory":1,"la1":30.2991,"la2":30.254,"lo1":-89.0895,"lo2":-89.0444,"dy":0.0017,"dx":0.0017,"nx":28,"ny":28,"refTime":"2025-03-07T03:00:00:Z","depth":0,"parameterNumber":2,"parameterNumberName":"U-component_of_WINDS"},"data":[0,0,0,0,0,0,0,0,0,0,0,0,0,0,0,0,0,0,0,0,0,0,0,0,0,0,0,0,0,0,0,0,0,0,0,0,0,0,0,0,0,0,0,0,0,0,0,0,0,0,0,0,0,0,0,0,0,0,-1.5263,-1.5264,0,-1.5313,-1.5313,-1.5314,-1.5322,-1.5322,-1.5321,-1.5321,-1.5373,-1.5375,-1.5377,0,0,0,0,0,0,0,0,0,0,0,0,0,-1.5177,-1.5178,-1.5263,-1.5264,-1.5264,-1.5313,-1.5313,-1.5314,-1.5322,-1.5322,-1.5321,-1.5321,-1.5373,-1.5375,-1.5377,0,0,0,0,0,0,0,0,0,0,0,0,0,-1.5219,-1.5179,-1.5263,-1.5274,-1.5276,-1.5313,-1.5313,-1.5314,-1.5322,-1.5322,-1.5321,-1.5321,-1.5372,-1.5374,-1.5377,-1.5407,0,0,-1.5385,-1.5387,0,0,0,0,0,0,0,0,-1.5217,-1.5222,-1.5272,-1.5274,-1.5275,-1.5311,-1.5302,-1.5345,-1.5323,-1.5305,-1.5321,-1.532,-1.5353,-1.5357,-1.5368,-1.5409,-1.5411,-1.5386,-1.5387,-1.5388,-1.5389,0,0,0,0,0,0,0,-1.5214,-1.522,-1.5283,-1.5273,-1.5275,-1.5277,-1.5283,-1.531,-1.5332,-1.5306,-1.5307,-1.5313,-1.5354,-1.5365,-1.5369,-1.5412,-1.5386,-1.5388,-1.539,-1.5391,-1.548,-1.548,0,0,0,0,0,0,-1.5209,-1.5218,-1.5281,-1.5284,-1.5244,-1.5279,-1.5285,-1.53,-1.5332,-1.5336,-1.5313,-1.5313,-1.5361,-1.5366,-1.5371,-1.5407,-1.5388,-1.5391,-1.5392,-1.5479,-1.548,-1.5481,0,0,0,0,0,0,-1.5207,-1.5214,-1.5279,-1.5251,-1.526,-1.5281,-1.5298,-1.5301,-1.5313,-1.5337,-1.5341,-1.5321,-1.5361,-1.5367,-1.5398,-1.5409,-1.5392,-1.5395,-1.5478,-1.5479,-1.548,-1.548,0,0,0,0,0,0,-1.5204,-1.5213,-1.5224,-1.5251,-1.5261,-1.5304,-1.5299,-1.5303,-1.5317,-1.5317,-1.5345,-1.5349,-1.5361,-1.5394,-1.54,-1.5413,-1.5397,-1.5477,-1.5479,-1.548,-1.5479,-1.5481,-1.5482,0,0,0,0,0,-1.5201,-1.5223,-1.5225,-1.5233,-1.5275,-1.5305,-1.5311,-1.5323,-1.5318,-1.533,-1.5345,-1.5348,-1.5407,-1.5397,-1.5404,-1.5417,-1.5476,-1.5478,-1.548,-1.5478,-1.548,-1.5482,0,0,0,0,0,0,-1.5197,-1.5226,-1.5229,-1.526,-1.528,-1.5306,-1.5321,-1.5325,-1.5347,-1.5346,-1.5362,-1.5368,-1.5397,-1.5411,-1.5398,-1.5448,-1.5441,-1.5445,-1.5437,-1.544,-1.5442,-1.5437,-1.5399,0,0,0,0,0,-1.52,-1.5221,-1.5246,-1.5271,-1.5281,-1.5299,-1.5313,-1.5321,-1.5342,-1.535,-1.5368,-1.5389,-1.5412,-1.5427,-1.545,-1.5481,-1.5487,-1.5494,-1.5496,-1.5497,-1.55,-1.5517,-1.552,-1.5486,-1.5486,-1.5486,0,0,-1.5206,-1.5224,-1.5237,-1.5271,-1.5287,-1.5309,-1.5306,-1.533,-1.5346,-1.5354,-1.5383,-1.5397,-1.5421,-1.5452,-1.5467,-1.5464,-1.5511,-1.5499,-1.55,-1.5502,-1.5519,-1.5522,-1.5525,-1.5487,-1.5487,-1.5487,0,0,-1.5227,-1.5244,-1.5266,-1.5282,-1.5307,-1.5319,-1.5324,-1.535,-1.5359,-1.5389,-1.5395,-1.5416,-1.5455,-1.5472,-1.5486,-1.5514,-1.5518,-1.5521,-1.553,-1.5547,-1.555,-1.5552,-1.5561,-1.5565,-1.5524,-1.5524,-1.5524,0,-1.5232,-1.5264,-1.5277,-1.53,-1.5315,-1.5323,-1.5345,-1.5361,-1.5392,-1.5402,-1.5398,-1.5448,-1.5465,-1.55,-1.5507,-1.5518,-1.5524,-1.5518,-1.5548,-1.5551,-1.5553,-1.5562,-1.5566,-1.5524,-1.5524,-1.5524,-1.5524,0,-1.5268,-1.5291,-1.5306,-1.5335,-1.5351,-1.5374,-1.5391,-1.5406,-1.5412,-1.5425,-1.5455,-1.5476,-1.5503,-1.5512,-1.5519,-1.5548,-1.5545,-1.5545,-1.5539,-1.5556,-1.5565,-1.5569,-1.5524,-1.5524,-1.5524,-1.5524,0,0,-1.5288,-1.5324,-1.5329,-1.5342,-1.537,-1.5388,-1.5411,-1.5437,-1.5449,-1.547,-1.549,-1.5523,-1.5523,-1.5539,-1.5548,-1.5563,-1.5583,-1.5561,-1.5562,-1.5564,-1.5615,-1.5615,-1.5618,-1.5586,-1.5587,-1.5587,-1.5613,0,-1.5313,-1.5353,-1.5366,-1.54,-1.5421,-1.5429,-1.545,-1.5469,-1.5481,-1.5501,-1.5516,-1.5539,-1.5537,-1.5547,-1.5562,-1.5577,-1.5594,-1.5576,-1.5604,-1.5605,-1.5597,-1.5623,-1.5623,-1.5646,-1.5617,-1.5617,-1.5618,0,-1.5346,-1.5367,-1.5403,-1.5428,-1.5437,-1.5455,-1.5479,-1.5499,-1.5521,-1.5529,-1.5546,-1.5554,-1.5579,-1.5572,-1.5607,-1.5594,-1.5607,-1.5617,-1.5618,-1.562,-1.5612,-1.5626,-1.5654,-1.5657,-1.5623,-1.5623,-1.5623,0,-1.5356,-1.5394,-1.542,-1.5431,-1.5461,-1.5473,-1.5486,-1.5507,-1.5522,-1.5544,-1.5553,-1.5578,-1.5591,-1.561,-1.5624,-1.5618,-1.5657,-1.5652,-1.5665,-1.5664,-1.5672,-1.5671,-1.5701,-1.5681,-1.5681,-1.5681,-1.5681,0,-1.5381,-1.5403,-1.5425,-1.5441,-1.5465,-1.548,-1.5504,-1.5518,-1.5537,-1.5556,-1.5565,-1.5583,-1.5601,-1.5622,-1.5633,-1.566,-1.5666,-1.5673,-1.5676,-1.5672,-1.5671,-1.568,-1.5678,-1.5682,-1.5682,-1.5682,-1.5682,0,-1.5396,-1.5412,-1.5441,-1.5466,-1.5473,-1.549,-1.5512,-1.5528,-1.5541,-1.5566,-1.5572,-1.5593,-1.5617,-1.5634,-1.5665,-1.5673,-1.5702,-1.5704,-1.5694,-1.5695,-1.5706,-1.5705,-1.5743,-1.5748,-1.5725,-1.5726,-1.5726,0,-1.5411,-1.5428,-1.5455,-1.5468,-1.5481,-1.5502,-1.5517,-1.5532,-1.5547,-1.5573,-1.5586,-1.5611,-1.5632,-1.5671,-1.5689,-1.5713,-1.5716,-1.5728,-1.572,-1.5715,-1.5715,-1.5714,-1.5715,-1.5729,-1.5729,-1.5729,-1.5729,0,-1.5435,-1.5442,-1.5462,-1.5485,-1.5503,-1.5522,-1.5541,-1.5552,-1.557,-1.5586,-1.5611,-1.5627,-1.5659,-1.5684,-1.571,-1.5724,-1.5729,-1.5732,-1.5736,-1.5731,-1.5724,-1.5727,-1.5696,-1.573,-1.573,-1.573,-1.573,-1.573,-1.545,-1.5465,-1.5486,-1.5509,-1.5525,-1.5542,-1.5558,-1.5573,-1.5594,-1.5621,-1.5629,-1.5654,-1.5676,-1.5712,-1.5726,-1.5747,-1.5745,-1.5752,-1.5753,-1.5754,-1.5754,-1.5721,-1.5751,-1.5751,-1.5751,-1.5751,-1.5751,0,-1.5474,-1.5488,-1.5509,-1.5535,-1.5552,-1.5556,-1.5578,-1.5592,-1.5614,-1.5634,-1.5654,-1.5683,-1.5707,-1.5727,-1.5751,-1.5764,-1.5767,-1.577,-1.5769,-1.5772,-1.5754,-1.5747,-1.5767,-1.5767,-1.5767,-1.5767,-1.5767,-1.5767,-1.5489,-1.5514,-1.5523,-1.5557,-1.5571,-1.5595,-1.5607,-1.5624,-1.5639,-1.567,-1.569,-1.5703,-1.5723,-1.5749,-1.5771,-1.5776,-1.5785,-1.5787,-1.5793,-1.5775,-1.5773,-1.5771,-1.5765,-1.5789,-1.5789,-1.5809,-1.5809,-1.5809]},{"header":{"parameterUnit":"m.s-1","parameterCategory":1,"la1":30.2991,"la2":30.254,"lo1":-89.0895,"lo2":-89.0444,"dy":0.0017,"dx":0.0017,"nx":28,"ny":28,"refTime":"2025-03-07T03:00:00:Z","depth":0,"parameterNumber":3,"parameterNumberName":"V-component_of_WINDS"},"data":[0,0,0,0,0,0,0,0,0,0,0,0,0,0,0,0,0,0,0,0,0,0,0,0,0,0,0,0,0,0,0,0,0,0,0,0,0,0,0,0,0,0,0,0,0,0,0,0,0,0,0,0,0,0,0,0,0,0,4.4673,4.4673,0,4.4708,4.4708,4.4709,4.4674,4.4673,4.4671,4.467,4.4703,4.4705,4.4707,0,0,0,0,0,0,0,0,0,0,0,0,0,4.4574,4.4576,4.4673,4.4673,4.4674,4.4708,4.4708,4.4709,4.4674,4.4673,4.4671,4.4669,4.4702,4.4704,4.4707,0,0,0,0,0,0,0,0,0,0,0,0,0,4.4614,4.4577,4.4673,4.4661,4.466,4.4708,4.4708,4.4709,4.4675,4.4673,4.4671,4.4669,4.4701,4.4704,4.4707,4.4767,0,0,4.4717,4.4718,0,0,0,0,0,0,0,0,4.4612,4.4617,4.4662,4.4662,4.4661,4.4685,4.4685,4.4728,4.4675,4.4669,4.467,4.4668,4.4698,4.4701,4.4712,4.4769,4.477,4.4717,4.4719,4.4721,4.4721,0,0,0,0,0,0,0,4.4609,4.4616,4.4687,4.4663,4.4662,4.4653,4.4656,4.4693,4.4694,4.4669,4.4667,4.4672,4.4697,4.4709,4.4713,4.4771,4.4717,4.472,4.4722,4.4723,4.488,4.4883,0,0,0,0,0,0,4.4608,4.4614,4.4685,4.4688,4.4631,4.4656,4.466,4.4679,4.4694,4.4694,4.4673,4.467,4.4705,4.4709,4.4714,4.4787,4.472,4.4723,4.4725,4.4878,4.4881,4.4883,0,0,0,0,0,0,4.4606,4.4615,4.4684,4.465,4.4658,4.466,4.4682,4.4681,4.4693,4.4697,4.4697,4.4686,4.4703,4.4709,4.4755,4.4787,4.4725,4.4728,4.4876,4.4879,4.4882,4.4933,0,0,0,0,0,0,4.4603,4.4614,4.4637,4.4651,4.466,4.4726,4.4684,4.4683,4.4699,4.4695,4.4708,4.4709,4.4702,4.475,4.4758,4.4791,4.473,4.4873,4.4877,4.4881,4.4928,4.4937,4.4945,0,0,0,0,0,4.46,4.4649,4.4639,4.4648,4.469,4.4728,4.4733,4.4725,4.4701,4.4725,4.4728,4.4708,4.4782,4.4755,4.4764,4.4798,4.4871,4.4876,4.4881,4.4924,4.4936,4.4945,0,0,0,0,0,0,4.4638,4.4651,4.4639,4.4695,4.4711,4.4722,4.4751,4.4737,4.4759,4.4754,4.4743,4.4746,4.4795,4.4801,4.477,4.4858,4.4822,4.4829,4.4853,4.4863,4.4872,4.487,4.4733,0,0,0,0,0,4.4653,4.4684,4.4692,4.474,4.4749,4.4749,4.4765,4.4758,4.4774,4.478,4.4786,4.4801,4.4828,4.4845,4.487,4.4928,4.4931,4.4956,4.4964,4.4971,4.4978,4.5011,4.5022,4.49,4.49,4.49,0,0,4.4684,4.4694,4.4714,4.4748,4.476,4.4792,4.4755,4.4789,4.4813,4.4784,4.4829,4.4834,4.485,4.4903,4.4926,4.4909,4.5012,4.4978,4.4983,4.4986,4.5017,4.5029,4.5039,4.4904,4.4903,4.4902,0,0,4.4757,4.4768,4.481,4.4823,4.4841,4.4841,4.4851,4.4865,4.4868,4.4913,4.4893,4.492,4.4966,4.4979,4.4991,4.5071,4.5054,4.5079,4.5124,4.5156,4.5166,4.5175,4.5205,4.5216,4.5085,4.5085,4.5085,0,4.4793,4.4841,4.4833,4.487,4.4886,4.4864,4.4906,4.4919,4.4944,4.4955,4.4935,4.4994,4.5003,4.5059,4.5079,4.5089,4.5101,4.5078,4.5166,4.5174,4.5182,4.5211,4.5222,4.5088,4.5088,4.5088,4.5087,0,4.4885,4.4919,4.4951,4.4978,4.4997,4.5037,4.5034,4.5055,4.5046,4.5048,4.5094,4.5104,4.5132,4.5144,4.5135,4.52,4.5189,4.5167,4.5132,4.5197,4.5224,4.5234,4.5093,4.5092,4.5091,4.509,0,0,4.4984,4.5007,4.5019,4.5032,4.5051,4.5077,4.5115,4.5144,4.5162,4.518,4.5213,4.5253,4.5234,4.5248,4.524,4.5269,4.5334,4.5244,4.5244,4.5262,4.5407,4.5425,4.5438,4.5322,4.5324,4.5326,4.5407,0,4.5059,4.5129,4.5123,4.5188,4.522,4.5199,4.5233,4.5248,4.5251,4.5277,4.5279,4.5309,4.5281,4.529,4.5316,4.532,4.5363,4.5314,4.5353,4.5354,4.5352,4.5452,4.547,4.5546,4.5417,4.5419,4.542,0,4.5157,4.5181,4.525,4.5266,4.5279,4.531,4.5336,4.5362,4.5379,4.5379,4.5396,4.5384,4.5423,4.5386,4.5439,4.5406,4.5422,4.5426,4.5429,4.5433,4.5393,4.5461,4.557,4.5582,4.5436,4.5435,4.5434,0,4.5224,4.5273,4.5322,4.5333,4.5353,4.5375,4.5384,4.5399,4.5417,4.5439,4.5451,4.5477,4.5492,4.5512,4.5507,4.548,4.5563,4.5525,4.5564,4.5565,4.5584,4.5583,4.5699,4.5591,4.5591,4.559,4.559,0,4.5311,4.5354,4.5353,4.5383,4.5431,4.5423,4.5471,4.5477,4.5491,4.5521,4.5504,4.5532,4.5524,4.5552,4.5548,4.5594,4.56,4.5602,4.56,4.5605,4.5605,4.5616,4.5611,4.5593,4.5593,4.5592,4.5592,0,4.5395,4.5395,4.5447,4.5462,4.5467,4.5502,4.5515,4.5543,4.5544,4.5583,4.5592,4.5594,4.5626,4.5623,4.5659,4.5656,4.5714,4.5706,4.571,4.5708,4.5749,4.5746,4.5878,4.5895,4.5774,4.5775,4.5776,0,4.5451,4.5484,4.5504,4.5524,4.5535,4.5567,4.5586,4.5579,4.5599,4.5622,4.5648,4.5679,4.5704,4.5757,4.5761,4.5789,4.5782,4.5826,4.5786,4.5789,4.5785,4.5784,4.5788,4.5834,4.5836,4.5837,4.5838,0,4.5551,4.555,4.5578,4.5608,4.5632,4.5654,4.5674,4.5691,4.5687,4.571,4.5744,4.5764,4.5802,4.5833,4.586,4.5868,4.5853,4.585,4.5861,4.5867,4.5869,4.587,4.5733,4.5848,4.5847,4.5846,4.5845,4.5845,4.5624,4.5654,4.5673,4.5706,4.572,4.574,4.5768,4.5774,4.5803,4.5834,4.5828,4.5867,4.5884,4.5918,4.5929,4.5959,4.5943,4.5958,4.5963,4.5967,4.5973,4.5862,4.5963,4.5963,4.5963,4.5962,4.5962,0,4.5725,4.5737,4.5767,4.5797,4.5823,4.5807,4.5829,4.5852,4.5887,4.5904,4.593,4.597,4.6,4.6008,4.6037,4.606,4.6054,4.6068,4.6067,4.607,4.5984,4.5973,4.6072,4.6072,4.6072,4.6072,4.6072,4.6072,4.5781,4.5831,4.5832,4.589,4.59,4.594,4.5954,4.5972,4.5987,4.6032,4.6059,4.6063,4.6077,4.6108,4.6135,4.6137,4.6149,4.6167,4.6166,4.6086,4.6075,4.6065,4.6054,4.6169,4.6169,4.6249,4.6249,4.625]}]]